STARLINK-35632, 66129

Orbit data source: Space-Track

STARLINK-35632, 66129 is a payload satellite owned by SpaceX/Seattle (US) in LEO that was launched on Wed, 22 Oct 2025 UTC via an FALCON 9 launch vehicle from the Air Force Western Test Range (AFWTR). Payload-class satellites include a variety of spacecraft equipped with specific instruments for various scientific and technological missions. These include communications satellites like Starlink; space stations such as the ISS; scientific satellites like the Hubble; Earth observation satellites from companies like Planet Labs, Umbra, and HawkEye 360; GPS; miniature CubeSats for education and research; and military/defense satellites.

Loading next visibility...
Identifier
66129, 2025-237R
Orbit
LEO
Country
Flag of USUS
Related business
Manufacturer
SpaceX/Seattle
Mission
Operational Commercial Communications
Bus & Motor
STARLINK V2MO, Unknown motor
Mass
575 kg wet, ~530 kg dry
Launch date (UTC)
2025-10-22 (9 months ago)
Launch vehicle
FALCON 9
Launch site
Air Force Western Test Range (AFWTR)
Object type
Payload
Rocket body
Debris
Shape & HBR
Box + 2 Pan, 17.7 m
Radar Cross Section
36.964 m², Large (>1 m²)

Expand to show TLE details & history
Last TLE update: 1 day ago

TLE from 1 day ago
0 STARLINK-35632
1 66129U 25237R   26199.15487475  .00008750  00000-0  30722-3 0  9998
2 66129  53.1588 153.7478 0001336  51.1839 308.9281 15.30197081 42586
Epoch: 2026-07-18T03:43Z
TLE epoch observation values (Epoch: 2026-07-18T03:43:01.178Z)
Latitude
-0.00001°
Longitude
162.0212°
Altitude
475.548 km
Speed
7.63 km/s
True Right ascension
10h 14m 59s
True Declination
0° 00' 00"
Sunlit
Object was in daylight at epoch
Visualization orbit readout
Latitude
Unknown
Longitude
Unknown
Altitude
Unknown
Speed
Unknown
Apparent Right ascension
Unknown
Apparent Declination
Unknown
Sunlit
N/A
Visualization observer readout
Local Sidereal Time
19:45:12
Azimuth
Unknown
Elevation
Unknown
Doppler factor
Unknown
Orbital elements
Apogee altitude
476.396 km
Perigee altitude
474.565 km
Semi-major axis
6,853.617 km
Eccentricity
0.00013
Inclination
53.1588°
RAAN
153.7478°
Arg. of periapsis
51.1839°
True anomaly
308.91619°
Mean anomaly
308.9281°
Eccentric anomaly
308.92214°
Mean motion
3.82528 °/min
Orbital period
94.11 mins
BSTAR
0.00030722
Loading maneuver chart data...
Computing Atmospheric mass density...
Loading historical data...
Loading historical data...
Loading historical data...
Loading historical data...
Loading historical data...
Loading historical data...
Loading historical data...

Documentation

Showing up to 5 results
|